Regional Weather Roundup
Issued by NWS

Home | Current Version | Previous Version | Text Only | Print | Product List | Glossary Off
Versions: 1 2 3 4 5 6 7 8 9 10 11 12 13 14 15 16 17 18 19 20 21 22 23 24 25 26 27 28 29 30 31 32 33 34 35 36 37 38 39 40 41 42 43 44 45 46 47 48 49 50

876
ASUS43 KDTX 061610
RWRMI
MICHIGAN HOURLY REGIONAL WEATHER ROUNDUP
NATIONAL WEATHER SERVICE DETROIT/PONTIAC MI
1100 AM EST TUE DEC 06 2016

NOTE: "FAIR" INDICATES FEW OR NO CLOUDS BELOW 12,000 FEET WITH NO
SIGNIFICANT WEATHER AND/OR OBSTRUCTION TO VISIBILITY.

MIZ047>049-052>055-059>063-066>070-074>076-081>083-061700-
SOUTHEAST LOWER MICHIGAN

CITY           SKY/WX    TMP DP  RH WIND       PRES   REMARKS
ADRIAN         CLOUDY    36  34  92 E7        29.77S WCI  30
ALMA           CLOUDY    33  32  95 NE6       29.82F FOG     WCI  28
ANN ARBOR      CLOUDY    39  35  86 E12G22    29.77S WCI  32
BAD AXE        MOSUNNY   38  32  79 E10       29.85F WCI  31
CARO           CLOUDY    37  33  86 E9        29.82F WCI  30
DETROIT CITY   PTSUNNY   40  36  86 E12G20    29.80F WCI  33
DETROIT        CLOUDY    40  35  83 E12       29.78F WCI  33
FLINT          MOSUNNY   37  33  85 E9        29.81F WCI  30
GROSSE ILE     CLOUDY    40  33  76 E6G16     29.77F
HILLSDALE      CLOUDY    34  32  93 E10       29.74F WCI  26
HOWELL         CLOUDY    38  33  82 E10G18    29.79R WCI  31

CITY           SKY/WX    TMP DP  RH WIND       PRES   REMARKS
JACKSON        CLOUDY    37  33  85 E7        29.76F WCI  32
LAMBERTVILLE   CLOUDY    41  32  70 E7        29.77R
LANSING        CLOUDY    37  32  82 E12       29.77F WCI  29
LAPEER         NOT AVBL
MASON          CLOUDY    36  33  89 E7        29.76F WCI  30
MONROE         CLOUDY    41  34  75 E15G21    29.76F
MT. CLEMENS    CLOUDY    38  35  87 E15       29.79F WCI  30
PONTIAC        CLOUDY    36  32  85 E10       29.78F WCI  28
PORT HOPE        N/A     40  33  76 SE21      29.86F WCI  30
PORT HURON     CLOUDY    37  32  81 E16G23    29.84S WCI  28
TRI CITIES     MOSUNNY   36  33  89 E12       29.82F WCI  28
MIDLAND        FAIR      37  32  81 E9        29.82F WCI  31
TROY           CLOUDY    39  33  81 E10       29.81F WCI  32
SAGINAW HB     MOSUNNY   36  32  87 E8        29.81F WCI  29
$$
MIZ043>046-050>051-056>058-064>065-071>073-077>080-061700-
SOUTHWEST LOWER MICHIGAN

CITY           SKY/WX    TMP DP  RH WIND       PRES   REMARKS
BATTLE CREEK   CLOUDY    37  33  85 E7        29.76S WCI  32
BENTON HARBOR  CLOUDY    35  30  82 E7        29.75F HAZE    WCI  29
BIG RAPIDS     CLOUDY    35  30  82 SE10      29.79F WCI  27
COLDWATER      CLOUDY    38  32  80 E14G20    29.71F WCI  29
FREMONT        PTSUNNY   34  29  81 E8        29.78F WCI  28
HOLLAND        CLOUDY    33  30  88 E9        29.77F WCI  25
GRAND RAPIDS   CLOUDY    32  29  88 NE8       29.79F FOG     WCI  25
IONIA          PTSUNNY   31  30  96 NE6       29.78S FOG     WCI  25
KALAMAZOO      CLOUDY    37  31  78 VRB3      29.75S
LUDINGTON      MOSUNNY   35  32  88 SE7       29.78F WCI  29
MARSHALL       CLOUDY    36  33  90 E6        29.73F WCI  31
MOUNT PLEASANT CLOUDY    34  31  91 E7        29.82F WCI  28
MUSKEGON       CLOUDY    36  32  85 E10       29.78F WCI  28
SOUTH HAVEN    CLOUDY    33  32  94 E8        29.75F FOG     WCI  27
$$
MIZ016>042-061700-
NORTHERN LOWER MICHIGAN

CITY           SKY/WX    TMP DP  RH WIND       PRES   REMARKS
ALPENA         CLOUDY    40  32  73 SE12G21   29.88F WCI  33
BEAVER ISLAND  CLOUDY    40  33  76 SE17G24   29.83S WCI  31
BELLAIRE       PTSUNNY   36  31  82 SE8       29.86R WCI  30
CADILLAC       CLOUDY    33  30  90 SE12      29.79F WCI  24
CHARLEVOIX     CLOUDY    38  32  78 SE9       29.87R WCI  31
FRANKFORT      SUNNY     36  30  80 SE6       29.80F WCI  31
GAYLORD        MOSUNNY   34  29  82 SE13      29.82F WCI  25
GRAYLING       CLOUDY    34  32  93 E12       29.84F FOG     WCI  25
HARBOR SPRINGS PTSUNNY   37  31  79 E3        29.84S
HOUGHTON LAKE  CLOUDY    35  31  85 E13       29.83F WCI  26
MANISTEE       CLOUDY    34  30  85 E8        29.79F WCI  27
OSCODA         CLOUDY    42  32  69 E13       29.88F
PELLSTON       MOSUNNY   36  30  79 SE14      29.85F WCI  27
ROGERS CITY    PTSUNNY   37  34  89 SE7       29.88F FOG     WCI  31
TRAVERSE CITY  CLOUDY    36  29  75 SE12G20   29.82S WCI  28
$$
MIZ007>008-015-061700-
EASTERN UPPER MICHIGAN

CITY           SKY/WX    TMP DP  RH WIND       PRES   REMARKS
KINROSS        PTSUNNY   36  34  92 SE10      29.87F WCI  28
MACKINAC ISLAN CLOUDY    37  32  84 SE10G16   29.85F WCI  29
NEWBERRY       PTSUNNY   36  33  89 SE14      29.84R WCI  27
S. S. MARIE    CLOUDY    37  34  89 E8        29.87F WCI  31
MUNISING         N/A     40  35  83 S8G18     29.74F WCI  34
$$
MIZ004>006-011>014-085-061700-
CENTRAL UPPER MICHIGAN

CITY           SKY/WX    TMP DP  RH WIND       PRES   REMARKS
MANISTIQUE     CLOUDY    40  35  82 SE12G22   29.80F WCI  33
ESCANABA       CLOUDY    40  33  76 S17G24    29.75F WCI  31
MENOMINEE      CLOUDY    39  33  79 S10       29.76S WCI  32
SAWYER-GWINN   CLOUDY    36  32  87 S17       29.72F WCI  25
$$
MIZ001>003-009>011-084-061700-
WESTERN UPPER MICHIGAN

CITY           SKY/WX    TMP DP  RH WIND       PRES   REMARKS
IRON MOUNTAIN  CLOUDY    37  30  75 SE10      29.67F WCI  30
HOUGHTON       CLOUDY    38  30  73 SE17G23   29.61F WCI  28
COPPER HARBOR    N/A     41  35  79 S14G29    29.63F
IRONWOOD       LGT SNOW  33  30  88 S7        29.59S FOG     WCI  27
$$

ABBREVIATIONS USED IN REMARKS
   TC - TEMPERATURE IN CELSIUS
  WCI - WIND CHILL INDEX
   HX - HEAT INDEX
  VSB - VISIBILITY





USA.gov is the U.S. government's official web portal to all federal, state and local government web resources and services.